Probability
0 0 0 1 2 2 1 0 0 1 2 1 0 1 4 6 5 3 4 14 25 22 14 12 11 6 1 0 0 0 0 0 0 0 0 0 0 0 0 0 0 0 0 0 0 0 0 0 0
0 0 0 1 2 1 0 0 0 1 1 1 0 2 5 6 6 5 8 20 29 23 15 15 14 9 3 0 0 0 0 0 0 0 0 0 0 0 0 0 0 0 0 0 0 0 0 0 0
0 0 1 1 1 0 0 0 1 1 1 0 0 2 6 6 6 7 12 22 31 27 21 21 20 13 5 1 0 0 0 0 0 0 0 0 0 0 0 0 0 0 0 0 0 0 0 0 0
0 1 2 1 0 0 0 0 1 1 1 1 3 7 11 10 6 6 11 21 31 31 27 26 24 15 6 1 0 0 0 0 0 0 0 0 0 0 0 0 0 0 0 0 0 0 0 0 0
0 1 2 1 0 0 0 0 0 1 1 2 7 15 18 13 7 5 9 21 32 34 29 28 27 17 5 1 0 0 0 0 0 0 0 0 0 0 0 0 0 0 0 0 0 0 0 0 0
0 0 1 1 0 0 0 0 0 1 2 2 8 18 21 15 10 8 12 22 34 37 31 26 24 15 5 1 0 0 0 0 0 0 0 0 0 0 0 0 0 0 0 0 0 0 0 0 0
0 0 0 0 0 0 0 0 0 1 2 2 5 17 26 23 15 12 15 22 34 39 32 21 14 8 3 1 0 0 0 0 0 0 0 0 0 0 0 0 0 0 0 0 0 0 0 0 0
0 0 0 0 0 0 0 0 0 2 3 3 7 22 38 35 21 15 18 24 33 38 30 16 6 2 1 0 0 0 0 0 0 0 0 0 0 0 0 0 0 0 0 0 0 0 0 0 0
0 0 0 0 0 0 0 0 0 1 3 9 21 38 48 41 26 21 24 29 35 37 28 17 10 5 1 0 0 0 0 0 0 0 0 0 0 0 0 0 0 0 0 0 0 0 0 0 0
0 0 0 0 0 0 0 0 0 1 6 19 39 55 55 42 30 25 29 35 41 39 30 23 19 12 6 4 2 1 1 1 0 0 0 0 0 0 0 0 0 0 0 0 0 0 0 0 0
0 0 0 0 0 0 0 0 0 3 11 26 47 61 57 42 32 28 31 39 44 41 34 32 29 22 17 12 7 5 4 2 1 1 0 0 0 0 0 0 0 0 0 0 0 0 0 0 0
0 0 0 0 0 0 0 0 1 6 15 27 44 57 53 40 32 31 36 43 46 44 42 45 45 41 35 25 15 11 8 4 2 1 0 0 0 0 0 0 0 0 0 0 0 1 1 1 1
0 0 0 0 0 0 0 0 3 10 18 25 38 50 48 37 31 34 40 47 51 51 53 59 62 59 52 40 26 18 12 6 2 1 0 0 0 0 0 0 0 0 0 0 0 1 2 2 1
0 0 0 0 0 0 0 1 6 16 21 22 31 43 45 38 33 34 41 49 56 59 63 66 65 60 54 45 33 22 14 9 4 2 0 0 0 0 0 0 0 0 0 0 0 1 1 2 1
0 0 0 0 0 0 0 4 13 21 21 20 27 38 42 41 37 37 41 49 56 63 66 62 55 50 46 39 30 20 14 10 6 3 1 0 0 0 0 0 0 0 0 0 0 0 0 0 0
0 0 0 0 0 0 1 8 20 23 18 20 27 35 40 41 38 40 43 47 55 62 62 55 48 44 40 33 25 17 12 10 6 2 0 0 0 0 0 0 0 0 0 0 0 0 0 0 0
0 0 0 0 0 0 1 10 21 22 18 23 29 34 38 36 34 38 42 45 52 58 60 55 48 44 38 30 23 17 13 10 5 1 0 0 0 0 0 0 0 0 0 0 0 0 0 0 0
0 0 0 0 0 0 1 8 19 22 21 25 32 37 36 30 29 32 36 39 43 51 57 55 48 43 36 28 21 16 11 7 3 0 0 0 0 0 0 0 0 0 0 0 0 0 0 0 0
0 0 0 0 0 0 1 7 17 23 23 26 32 36 34 26 23 26 30 32 34 40 48 48 41 35 30 23 18 13 8 4 1 0 0 0 0 0 0 0 0 0 0 0 0 0 0 0 0
0 0 0 0 0 0 1 6 16 22 22 24 28 31 29 23 20 23 26 28 29 32 35 35 32 27 22 18 15 11 6 2 0 0 0 0 0 0 0 0 0 0 0 0 0 0 0 0 0
0 0 0 0 0 0 0 5 14 18 18 19 21 23 23 21 18 19 23 24 24 24 25 25 25 23 19 14 11 8 4 2 0 0 0 0 0 0 0 0 0 0 0 0 0 0 0 0 0
0 0 0 0 0 0 0 4 10 12 13 15 16 18 19 18 15 14 16 18 17 17 17 18 20 22 18 12 8 5 2 1 1 0 0 0 0 0 0 0 0 0 0 0 0 0 0 0 0
0 0 0 0 0 0 0 2 4 6 7 10 13 15 16 15 12 10 11 12 13 11 11 12 15 17 15 10 6 3 1 1 1 0 0 0 0 0 0 0 0 0 0 0 0 0 0 0 0
0 0 0 0 0 0 0 1 2 2 2 4 7 10 13 13 10 8 8 8 9 8 6 8 12 14 11 8 5 3 2 2 1 0 0 0 0 0 0 0 0 0 0 0 0 0 0 0 0
0 0 0 0 1 0 0 1 2 1 0 1 3 5 7 8 8 7 6 5 5 5 6 8 11 11 8 4 3 3 3 3 2 0 0 0 0 0 1 2 2 1 0 0 0 0 0 0 0
0 0 0 1 1 0 0 1 1 0 0 0 1 1 2 4 6 8 6 4 4 5 7 12 13 10 5 2 2 4 4 2 1 0 0 0 0 1 3 4 4 3 1 1 1 0 0 0 0
0 0 0 1 0 0 0 1 1 1 1 1 1 1 0 2 5 8 7 6 7 8 10 15 17 13 6 3 3 3 2 1 0 0 0 1 1 4 6 7 5 5 3 2 1 0 0 0 0
0 0 0 0 0 0 0 1 2 2 1 1 2 2 1 1 3 5 6 7 10 11 12 17 22 20 12 7 4 3 3 2 1 1 3 5 7 9 12 9 7 6 5 4 3 1 0 0 0
0 0 0 0 0 0 0 0 1 1 1 0 1 2 1 0 1 2 3 6 9 11 14 20 24 24 18 11 7 7 9 9 8 8 11 16 19 20 20 16 11 8 6 6 5 2 1 1 1
0 0 0 0 0 0 0 0 0 0 0 0 1 2 2 1 0 1 2 4 7 10 15 22 26 25 20 13 12 14 15 15 14 16 21 27 31 30 27 23 16 10 7 8 7 4 1 1 2
Wind_Speed
10 13 11 9 7 6 6 6 8 8 9 10 8 5 7 10 8 7 6 9 21 22 19 18 16 16 15 14 14 14 13 13 13 12 12 11 11 11 11 11 11 11 11 11 11 11 10 10 10
11 14 11 8 8 7 4 2 6 9 10 7 5 4 7 10 10 9 9 12 21 21 18 17 17 16 15 15 14 13 13 13 13 12 12 11 11 10 10 11 10 10 10 10 10 10 10 10 9
14 17 10 9 11 9 4 5 6 6 7 4 3 3 7 8 8 8 10 15 20 20 17 18 18 17 16 15 14 13 13 13 12 12 11 10 10 10 10 10 10 10 9 9 9 9 9 9 8
10 10 8 9 12 7 6 7 7 4 4 4 3 5 8 7 6 9 13 14 20 19 19 18 18 17 16 15 14 14 13 12 12 11 10 9 9 9 9 9 9 9 8 8 8 8 8 8 7
11 8 10 13 13 4 6 7 5 4 3 4 4 7 9 6 7 11 12 15 18 19 19 18 18 17 15 15 14 13 13 12 11 10 9 9 8 8 8 8 8 8 8 7 7 7 6 6 5
8 9 11 11 5 4 6 5 4 3 3 3 3 6 7 7 9 11 11 13 16 19 19 17 18 17 15 14 14 13 12 11 10 9 9 8 8 8 8 7 7 7 6 6 6 5 5 4 4
10 11 14 13 6 5 5 5 6 5 4 5 3 5 7 8 10 10 9 11 14 19 18 15 15 14 15 14 13 12 12 11 10 9 8 7 7 7 7 7 6 6 5 5 4 4 4 3 2
10 10 15 9 6 6 6 4 4 5 4 4 2 4 9 10 10 11 9 9 12 16 17 15 15 14 12 12 13 12 12 11 9 8 7 7 7 7 7 7 6 5 5 4 4 3 3 3 2
10 9 10 8 8 7 8 6 4 2 1 2 5 8 14 15 13 13 11 11 11 13 13 14 15 14 13 12 13 12 11 10 9 7 7 6 4 5 6 6 8 6 5 4 4 4 4 4 5
7 8 8 8 8 8 8 6 5 3 1 3 9 13 14 14 14 14 12 13 12 12 12 9 12 11 10 10 10 7 7 7 6 4 4 3 1 2 4 7 7 6 6 5 5 5 5 5 4
8 8 9 8 8 8 8 8 5 4 3 4 7 13 13 12 12 13 12 11 12 11 10 10 10 8 8 7 7 4 3 4 4 4 2 1 0 1 3 3 4 4 5 3 4 4 3 2 0
8 9 9 9 8 8 8 7 6 3 4 5 6 11 13 13 12 11 11 11 11 11 10 9 9 6 6 6 5 4 4 3 3 4 2 1 1 1 2 1 1 0 1 1 1 1 1 1 1
10 10 9 8 8 7 7 6 5 1 6 5 6 10 11 12 11 9 9 9 9 9 9 9 9 7 6 5 3 5 4 4 5 4 2 1 1 2 2 2 1 1 0 1 0 1 1 1 1
11 12 10 10 9 7 6 6 4 4 5 3 5 8 9 9 9 8 9 10 9 8 8 9 9 8 6 5 3 3 4 3 4 4 3 2 2 2 2 1 0 0 1 2 1 1 0 0 1
13 14 11 9 10 5 5 6 3 6 6 4 6 8 9 8 7 8 9 9 10 9 8 9 8 9 7 6 5 4 4 4 5 4 3 2 3 2 1 1 1 1 1 1 1 0 0 1 1
16 14 11 7 6 3 4 5 7 8 6 5 7 8 8 6 5 6 9 8 9 9 8 8 8 9 8 5 4 3 3 4 4 4 4 4 3 2 1 1 3 1 0 1 1 0 0 1 0
12 10 9 4 2 4 6 4 8 8 6 6 8 9 9 8 6 6 8 8 8 9 9 7 7 9 8 6 4 4 4 3 3 3 4 3 2 1 1 3 2 1 0 1 1 3 2 2 2
11 11 11 8 3 6 7 4 6 8 6 7 8 9 10 9 9 8 8 9 9 8 8 8 7 7 7 5 4 4 4 3 3 4 4 3 2 2 2 2 1 2 2 2 3 2 1 1 2
12 13 13 10 6 7 7 5 4 7 6 7 8 9 11 10 10 9 9 9 10 9 8 8 9 8 7 5 4 4 4 3 3 4 5 3 3 2 2 2 1 1 3 3 2 2 1 1 1
13 14 13 10 7 8 8 6 5 7 7 7 9 10 11 11 10 10 9 9 10 10 10 9 9 9 8 5 4 4 4 3 3 4 4 4 3 2 2 1 1 3 2 3 2 2 2 1 1
13 12 12 13 13 11 9 4 7 7 7 9 10 10 11 13 12 11 11 11 11 11 11 10 9 9 8 7 5 4 3 2 3 5 4 3 3 2 3 1 2 0 1 3 1 2 2 2 1
12 11 13 14 14 9 8 3 6 8 8 10 10 10 11 11 12 11 11 12 12 11 11 9 10 9 8 8 6 7 5 4 5 4 4 4 3 3 3 2 2 1 2 2 1 3 2 1 2
13 14 15 13 11 9 10 7 6 8 7 9 11 11 11 12 12 12 12 11 11 11 11 10 10 9 9 8 7 6 5 4 4 5 6 5 4 4 4 4 3 1 1 2 3 2 2 2 3
11 13 15 8 3 4 12 11 5 4 4 7 11 11 12 12 12 12 12 11 10 11 11 11 10 10 9 8 8 7 5 4 4 5 6 5 4 4 5 4 3 3 2 2 2 1 0 1 3
10 10 10 7 0 5 12 7 5 6 6 7 11 12 11 12 12 12 13 12 11 12 12 12 12 11 10 9 8 7 6 5 4 4 5 5 4 5 6 6 5 3 3 3 2 2 1 1 0
10 10 9 10 11 6 3 2 5 7 7 8 11 12 13 13 13 13 13 12 12 12 12 12 12 11 11 10 8 7 6 5 4 6 4 5 3 4 7 6 6 5 4 4 4 3 4 2 2
11 10 9 9 12 9 2 1 5 4 5 6 11 12 12 12 14 14 14 13 12 12 11 12 12 11 11 10 8 7 7 6 5 5 5 4 3 4 8 7 6 6 5 4 4 3 3 3 3
10 9 7 7 7 7 3 3 1 2 3 5 8 11 11 12 13 14 14 14 13 12 11 11 12 11 10 10 9 9 8 7 5 5 6 4 4 3 6 7 7 6 6 6 5 4 4 4 4
7 9 8 7 7 8 5 2 5 4 4 6 8 10 12 12 13 12 12 12 13 13 12 11 11 11 10 10 9 8 8 8 7 6 6 5 4 4 5 6 6 7 7 7 6 6 5 6 5
8 10 9 7 7 8 7 3 3 2 4 5 8 9 9 9 11 12 12 12 11 13 13 12 12 12 11 10 9 9 8 8 8 8 7 7 6 6 6 6 7 7 8 7 7 8 7 6 6
Wind_Direction
225 236 235 248 247 246 274 301 358 30 52 48 39 23 51 57 71 102 152 149 122 123 128 128 125 125 124 123 123 123 123 121 118 116 112 109 105 101 97 94 92 91 90 88 85 84 83 82 79
248 247 243 248 257 270 267 14 22 39 61 58 51 41 73 70 84 116 138 137 124 127 134 130 127 126 126 125 125 125 125 123 120 118 114 111 108 104 101 98 95 92 91 88 87 85 83 82 80
257 261 261 251 252 272 323 42 48 60 79 78 74 62 69 86 97 120 134 139 127 130 129 127 130 128 128 128 128 127 125 124 122 120 117 115 113 109 104 101 99 97 93 91 91 88 84 81 80
251 245 244 263 279 307 15 37 28 25 91 91 60 80 78 74 105 127 142 139 125 128 128 132 131 130 130 130 130 128 127 126 125 124 122 120 117 112 107 102 101 99 96 93 91 90 86 82 79
244 259 251 265 275 322 31 31 8 359 38 75 78 88 88 85 111 132 144 133 131 133 129 134 133 132 132 132 131 130 129 128 127 126 126 125 120 117 112 107 105 103 101 97 94 92 89 83 79
252 255 268 277 300 34 39 41 354 18 29 56 96 104 104 121 123 135 144 133 135 130 129 133 134 134 135 134 133 133 133 131 131 130 127 125 123 121 117 109 105 107 104 101 100 100 96 87 81
260 278 281 291 343 37 44 23 4 4 34 45 58 98 116 122 123 136 140 133 133 129 131 140 140 139 139 139 139 138 136 135 135 134 135 135 136 135 131 125 117 114 113 113 112 113 115 113 111
262 284 292 306 357 24 40 30 40 14 23 64 48 93 128 132 138 138 131 128 131 132 139 147 148 145 147 145 144 141 141 141 141 143 150 157 160 157 155 151 136 131 131 133 135 141 149 159 179
265 271 292 349 7 3 9 1 16 73 323 101 84 92 127 141 150 144 144 141 133 133 141 152 147 151 154 150 146 148 149 151 153 159 172 182 187 170 165 144 149 152 156 160 167 181 194 203 207
256 274 316 2 355 344 341 338 326 308 304 119 111 112 131 148 156 159 157 148 144 138 143 142 141 148 150 144 145 157 160 154 170 150 172 180 157 151 137 141 158 164 173 180 193 208 216 226 213
276 302 330 335 339 333 324 327 331 323 354 73 128 134 146 156 164 166 163 160 148 144 140 138 138 141 136 128 146 142 136 146 142 122 124 102 81 114 115 142 161 180 188 194 181 206 226 216 153
272 293 301 307 320 312 315 322 329 359 57 75 125 144 150 160 169 168 166 159 149 149 141 139 126 119 118 126 129 132 134 136 122 108 74 80 77 49 84 80 55 317 152 141 163 201 156 45 14
280 282 289 298 296 305 312 312 305 13 98 114 144 153 160 166 167 164 162 146 145 144 140 127 120 114 108 101 128 132 124 128 115 112 83 53 88 64 77 72 38 308 78 124 149 91 85 132 209
298 302 305 303 296 287 299 302 298 98 113 139 155 155 160 161 164 153 156 145 147 142 131 123 127 121 118 117 108 106 119 117 114 102 94 55 75 69 59 105 104 2 57 49 3 52 95 116 114
292 290 287 281 274 285 320 312 85 120 146 172 159 152 152 157 155 154 156 150 146 140 131 130 135 135 137 137 148 136 135 123 108 111 103 74 74 72 33 134 138 59 76 134 212 284 220 202 177
279 278 281 272 262 269 280 311 123 149 164 164 153 149 146 142 152 154 145 148 146 139 137 149 150 142 142 142 143 127 115 109 114 119 108 85 77 54 339 53 79 22 226 173 161 125 349 35 52
282 285 292 293 240 287 296 315 149 165 166 166 163 156 150 148 158 142 143 147 146 140 142 145 137 141 143 139 134 111 97 97 118 117 106 105 94 63 29 65 58 280 156 74 53 67 30 10 11
309 312 319 324 322 315 306 297 164 161 166 171 166 160 156 163 161 153 157 150 140 140 141 142 134 138 138 133 127 116 118 134 126 107 110 122 111 59 13 111 51 324 61 64 60 55 47 344 319
308 305 312 314 320 307 298 289 180 158 169 167 164 161 165 169 163 160 162 156 150 147 147 150 147 149 146 145 148 141 149 159 136 130 131 128 107 89 7 75 122 32 72 54 47 32 281 240 13
294 297 306 308 307 293 286 274 159 158 169 171 169 168 169 169 163 165 164 165 161 160 162 162 158 157 157 156 153 152 152 167 139 117 132 143 139 162 145 73 136 78 99 72 44 42 338 317 105
294 302 314 313 307 292 285 265 136 159 172 171 173 172 171 172 170 172 173 171 169 170 173 172 166 163 164 161 159 152 144 151 130 136 157 162 155 126 60 72 57 20 160 111 57 17 353 348 358
294 311 311 307 306 316 334 311 151 172 183 175 171 170 171 169 172 176 179 178 177 176 175 168 167 166 165 166 163 163 172 180 166 164 155 165 169 162 154 135 98 349 62 118 194 96 349 326 312
298 310 303 306 319 333 322 287 159 172 181 176 171 170 167 168 173 178 183 182 179 175 174 168 166 166 166 172 169 177 184 185 166 155 150 169 172 183 174 160 156 198 93 95 66 70 2 343 348
289 295 292 294 358 328 271 272 138 147 148 159 161 164 163 165 170 174 178 176 174 173 171 168 165 167 169 177 175 187 194 190 167 163 159 184 173 187 183 175 174 199 167 138 131 135 190 26 15
277 290 297 307 152 231 251 270 103 101 100 131 146 153 159 161 167 171 173 174 174 174 173 167 168 170 173 180 182 187 198 193 185 187 179 199 186 182 179 181 176 198 174 173 172 189 255 198 41
268 272 287 310 313 304 306 343 94 89 93 115 134 144 158 166 169 172 173 173 175 178 174 166 169 172 176 183 184 186 194 200 201 208 207 204 218 180 164 172 177 195 193 198 181 215 203 189 211
265 275 294 292 294 304 331 66 66 68 94 118 133 144 158 167 168 171 170 173 176 178 173 170 167 172 179 184 182 187 197 213 212 193 210 212 207 177 159 172 181 190 199 211 189 223 231 180 201
254 281 294 296 305 308 330 69 134 202 161 144 140 147 155 163 167 170 173 175 175 176 174 173 169 176 181 185 187 191 199 207 210 215 215 215 203 193 161 175 184 192 193 198 212 226 218 215 219
255 256 268 285 290 302 314 78 158 183 166 146 147 148 157 167 168 167 170 174 175 175 174 175 174 179 185 189 192 199 193 200 204 214 217 214 211 198 187 188 191 196 199 198 202 226 229 212 219
258 265 267 266 276 284 295 92 82 98 96 121 129 132 144 156 161 164 167 170 178 180 178 179 180 184 188 191 191 196 199 199 202 209 211 209 209 206 200 198 202 206 206 203 204 216 230 226 221